Location: Newark
(21.8258°S, 114.1586°E)
Time: 01:37:11
(UTC+00:00)

N. Korean satellite - Pass Details

Date: 18 December 2019
Orbit: 454 x 508 km, 97.2° (Epoch: 18 January)

Event Time Altitude Azimuth Distance (km) Brightness Sun altitude
Rises 20:45:24 0° 51° (NE) 2,462 10.4 -11.2°
Reaches altitude 10° 20:48:31 10° 84° (E) 1,605 10.1 -10.6°
Maximum altitude 20:49:51 12° 107° (ESE) 1,496 10.4 -10.3°
Drops below altitude 10° 20:51:13 10° 130° (SE) 1,620 10.8 -10.0°
Sets 20:54:24 0° 162° (SSE) 2,517 11.0 -9.4°
